Regional Weather Roundup
Issued by NWS

Home | Current Version | Previous Version | Graphics & Text | Print | Product List | Glossary On
Versions: 1 2 3 4 5 6 7 8 9 10 11 12 13 14 15 16 17 18 19 20 21 22 23 24 25 26 27 28 29 30 31 32 33 34 35 36 37 38 39 40 41 42 43 44 45 46 47 48 49 50
716
ASUS44 KMEG 242310
RWRTN
TENNESSEE HOURLY STATE WEATHER ROUNDUP
NATIONAL WEATHER SERVICE MEMPHIS TN
600 PM CDT TUE APR 24 2018

TNZ002-004-019-021-049-052-054-088>092-250000-
WEST TENNESSEE

CITY           SKY/WX    TMP DP  RH WIND       PRES   REMARKS
MEMPHIS INTL   PTSUNNY   65  54  67 NW12      29.99R
NWS MEMPHIS      N/A     64 N/A N/A MISG        N/A
JACKSON        CLOUDY    62  57  83 NW13      29.97S
DYERSBURG      PTSUNNY   62  57  83 NW7       29.99R
SOMERVILLE     CLOUDY    61  57  88 NW3       29.97S
COVINGTON      PTSUNNY   63  57  82 N10       29.99R
UNION CITY     CLOUDY    61  57  88 NW8       29.96S
BOLIVAR        CLOUDY    61  57  88 NW5       29.97S
PARIS          PTSUNNY   63  57  82 NW6G12    29.94S
HUNTINGDON     CLOUDY    63  57  82 W12G17    29.94R
LEXINGTON      CLOUDY    64  57  77 NW6       29.94R
SELMER         CLOUDY    63  55  77 W8G18     29.95R
SAVANNAH       CLOUDY    64  55  72 W9        29.93S
$$

TNZ008-025-027-028-033-062-065-066-250000-
NORTH MIDDLE TENNESSEE

CITY           SKY/WX    TMP DP  RH WIND       PRES   REMARKS
NASHVILLE      LGT RAIN  63  55  75 N15G26    29.90S
PORTLAND       CLOUDY    59  54  82 NW12      29.91R
CLARKSVILLE    CLOUDY    60  52  74 N12       29.93R
SMYRNA         CLOUDY    62  57  83 N12       29.90S
COOKEVILLE     CLOUDY    61  55  82 CALM      29.88R
LIVINGSTON     CLOUDY    57  55  94 N7        29.87S FOG
GALLATIN       PTSUNNY   63  55  77 NW10      29.92S
CROSSVILLE     LGT RAIN  55  53  93 W8        29.89R
ROCKWOOD       CLOUDY    59  55  88 N7        29.86S
$$

TNZ061-075-076-078-094-096-097-250000-
SOUTH MIDDLE TENNESSEE

CITY           SKY/WX    TMP DP  RH WIND       PRES   REMARKS
LEWISBURG      PTCLDY    63  55  77 NW5G12    29.89F
FAYETTEVILLE   PTSUNNY   63  57  82 NW6       29.89S
TULLAHOMA      PTSUNNY   63  54  72 NW9       29.89R
WINCHESTER     PTSUNNY   64  52  63 NW7G13    29.88S
MCMINNVILLE    PTSUNNY   63  55  77 VRB5      29.89S
COLUMBIA       PTSUNNY   63  63 100 CALM      29.90S
SHELBYVILLE    CLOUDY    59  57  94 N7        29.90S FOG
$$

TNZ017-018-042-046-047-250000-
NORTHEAST TENNESSEE

CITY           SKY/WX    TMP DP  RH WIND       PRES   REMARKS
TRI CITIES     CLOUDY    57  57 100 CALM      29.84S
ELIZABETHTON   LGT RAIN  57  55  94 SW5       29.83S
$$

TNZ012-013-036-069-073-074-250000-
CENTRAL EAST TENNESSEE

CITY           SKY/WX    TMP DP  RH WIND       PRES   REMARKS
KNOXVILLE      CLOUDY    62  56  80 W10       29.83S
OAK RIDGE      CLOUDY    62  60  93 W5        29.85S
DOWNTOWN KNOXV CLOUDY    63  61  94 SW5       29.83F
GATLINBURG     PTSUNNY   59  55  88 CALM      29.84R
MORRISTOWN     FOG       59  59 100 S5        29.83R VSB 1
JACKSBORO      PTSUNNY   59  57  94 CALM      29.88S
$$

TNZ083-085-099-250000-
SOUTHEAST TENNESSEE

CITY           SKY/WX    TMP DP  RH WIND       PRES   REMARKS
CHATTANOOGA    FAIR      70  49  47 W12       29.85S
DAYTON         MOCLDY    63  57  82 NW7       29.85S
$$

SKY/WX REPORTED AS FAIR MEANS FEW OR NO CLOUDS BELOW
12 THOUSAND FEET.





USA.gov is the U.S. government's official web portal to all federal, state and local government web resources and services.